User: anonymous   Login
Location: Unspecified
(0.0000°N, 0.0000°E)
Time: 15:52:56
(UTC+00:00)
Language:

Kiku-3 - Orbit

View from above orbital plane
View from above orbital plane
View from above satellite
View from above satellite

Ground track
Ground track

The orbit data is extracted from the following two-line orbital elements,

1 12295U 81012A   19016.24193795  .00001549  00000-0  24269-3 0  9993
2 12295  28.4505 337.6052 5031251 174.5140 194.4242  5.57263033485670
Epoch (UTC): 16 January 2019 05:48:23
Eccentricity: 0.5031251
inclination: 28.4505°
perigee height: 299 km
apogee height: 13822 km
right ascension of ascending node: 337.6052°
argument of perigee: 174.5140°
revolutions per day: 5.57263033
mean anomaly at epoch: 194.4242°
orbit number at epoch: 48567

The dashed part of the orbit path shows where the satellite is in the earth's shadow,  

DLR